Weather History for Ruston, LA

Change the Weather History Date:

Friday, November 30, 2012

  Actual Average Record
Temperature  
Mean Temperature 54 °F -  
Max Temperature 71 °F 61 °F 77 °F (1946)
Min Temperature 38 °F 37 °F 20 °F (1976)
Degree Days  
Heating Degree Days 10    
Growing Degree Days 4 (Base 50)    
Moisture  
Dew Point 48 °F    
Average Humidity 77    
Maximum Humidity 100    
Minimum Humidity 52    
Precipitation  
Precipitation 0.00 in - - ()
Sea Level Pressure  
Sea Level Pressure 30.24 in    
Wind  
Wind Speed 5 mph (South)    
Max Wind Speed 8 mph    
Max Gust Speed -    
Visibility 9 miles    
Events Fog    
Averages and records for this station are not official NWS values.
T = Trace of Precipitation, MM = Missing Value Source: NWS Daily Summary

Daily Weather History Graph

Daily Weather History Graph

Search for Another Location

Airport:

Trip Planner

Search our weather history database for the weather conditions in past years. The results will help you decide how hot, cold, wet, or windy it might be!

Date:

Astronomy

Nov. 30, 2012 Rise Set
Actual Time 6:53 AM CST 5:04 PM CST
Civil Twilight 6:26 AM CST 5:31 PM CST
Nautical Twilight 5:56 AM CST 6:01 PM CST
Astronomical Twilight 5:26 AM CST 6:31 PM CST
Moon 6:59 PM CST (11/30) 8:26 AM CST (11/30)
Length of Visible Light 11h 04m
Length of Day
10h 10m
Waning Gibbous, 96% of the Moon is Illuminated
Nov 30
Waning Gibbous
Dec 6
Last Quarter
Dec 13
New
Dec 19
First Quarter
Dec 28
Full

Hourly Weather History & Observations

Time (CST) Temp. Windchill Dew Point Humidity Pressure Visibility Wind Dir Wind Speed Gust Speed Precip Events Conditions
12:15 AM 41.9 °F 39.0 °F 35.2 °F 77% 30.27 in 10.0 mi South 4.6 mph - N/A   Clear
12:35 AM 42.8 °F 39.3 °F 34.3 °F 72% 30.26 in 10.0 mi South 5.8 mph - N/A   Clear
12:55 AM 42.3 °F 38.6 °F 34.3 °F 74% 30.26 in 10.0 mi South 5.8 mph - N/A   Clear
1:15 AM 41.0 °F 35.8 °F 34.7 °F 78% 30.26 in 10.0 mi South 8.1 mph - N/A   Clear
1:35 AM 41.9 °F 37.5 °F 34.7 °F 76% 30.26 in 10.0 mi South 6.9 mph - N/A   Clear
1:55 AM 43.7 °F 40.3 °F 34.7 °F 71% 30.26 in 10.0 mi South 5.8 mph - N/A   Clear
2:15 AM 43.9 °F 39.3 °F 35.1 °F 71% 30.26 in 10.0 mi South 8.1 mph - N/A   Clear
2:35 AM 43.5 °F 39.4 °F 37.2 °F 78% 30.26 in 10.0 mi South 6.9 mph - N/A   Clear
2:55 AM 43.9 °F 39.9 °F 38.3 °F 81% 30.26 in 10.0 mi South 6.9 mph - N/A   Clear
3:15 AM 43.9 °F 39.9 °F 39.2 °F 84% 30.25 in 10.0 mi South 6.9 mph - N/A   Clear
3:35 AM 44.1 °F - 40.3 °F 87% 30.25 in 10.0 mi Calm Calm - N/A   Clear
3:55 AM 43.2 °F 40.5 °F 40.6 °F 91% 30.25 in 10.0 mi South 4.6 mph - N/A   Clear
4:15 AM 43.2 °F 40.5 °F 41.9 °F 95% 30.25 in 10.0 mi South 4.6 mph - N/A   Clear
4:35 AM 43.3 °F 40.7 °F 43.3 °F 100% 30.25 in 10.0 mi South 4.6 mph - N/A   Clear
4:55 AM 43.0 °F 40.3 °F 43.0 °F 100% 30.25 in 7.0 mi South 4.6 mph - N/A   Clear
5:15 AM 42.8 °F 39.3 °F 42.8 °F 100% 30.25 in 5.0 mi South 5.8 mph - N/A   Clear
5:35 AM 41.9 °F - 41.9 °F 100% 30.26 in 4.0 mi Calm Calm - N/A   Clear
6:15 AM 38.5 °F - 38.5 °F 100% 30.27 in 5.0 mi Calm Calm - N/A   Clear
6:35 AM 39.4 °F - 39.4 °F 100% 30.27 in 7.0 mi Calm Calm - N/A   Clear
6:55 AM 38.3 °F - 38.3 °F 100% 30.28 in 10.0 mi Calm Calm - N/A   Clear
7:15 AM 38.8 °F - 38.8 °F 100% 30.28 in 2.5 mi Calm Calm - N/A   Overcast
7:35 AM 40.3 °F - 40.3 °F 100% 30.28 in 0.2 mi Calm Calm - N/A Fog Fog
7:55 AM 42.3 °F 40.5 °F 42.3 °F 100% 30.28 in 0.2 mi South 3.5 mph - N/A Fog Fog
8:15 AM 44.1 °F 41.5 °F 44.1 °F 100% 30.29 in 0.2 mi South 4.6 mph - N/A Fog Fog
8:35 AM 45.9 °F 42.9 °F 45.9 °F 100% 30.29 in 0.8 mi South 5.8 mph - N/A   Overcast
8:55 AM 48.0 °F - 48.0 °F 100% 30.29 in 4.0 mi South 6.9 mph - N/A   Scattered Clouds
9:15 AM 51.3 °F - 51.3 °F 100% 30.30 in 10.0 mi South 6.9 mph - N/A   Clear
9:35 AM 54.5 °F - 49.3 °F 83% 30.30 in 10.0 mi South 8.1 mph - N/A   Clear
9:55 AM 57.4 °F - 49.8 °F 76% 30.30 in 10.0 mi SSE 8.1 mph - N/A   Clear
10:15 AM 59.4 °F - 50.4 °F 72% 30.29 in 10.0 mi South 5.8 mph - N/A   Clear
10:35 AM 61.9 °F - 51.3 °F 68% 30.29 in 10.0 mi South 8.1 mph - N/A   Clear
10:55 AM 63.9 °F - 52.5 °F 67% 30.29 in 10.0 mi South 5.8 mph - N/A   Clear
11:15 AM 65.5 °F - 52.9 °F 64% 30.28 in 10.0 mi South 6.9 mph - N/A   Scattered Clouds
11:35 AM 65.8 °F - 53.6 °F 65% 30.27 in 10.0 mi SSW 5.8 mph - N/A   Scattered Clouds
11:55 AM 66.9 °F - 53.6 °F 62% 30.26 in 10.0 mi SW 5.8 mph - N/A   Clear
12:15 PM 67.1 °F - 53.2 °F 61% 30.25 in 10.0 mi SW 5.8 mph - N/A   Clear
12:35 PM 68.5 °F - 53.6 °F 59% 30.24 in 10.0 mi Calm Calm - N/A   Clear
12:55 PM 69.1 °F - 53.2 °F 57% 30.23 in 10.0 mi Calm Calm - N/A   Mostly Cloudy
1:15 PM 70.2 °F - 53.2 °F 55% 30.21 in 10.0 mi SSE 5.8 mph - N/A   Scattered Clouds
1:35 PM 70.7 °F - 52.7 °F 53% 30.21 in 10.0 mi Calm Calm - N/A   Clear
1:55 PM 70.9 °F - 52.7 °F 53% 30.21 in 10.0 mi Calm Calm - N/A   Clear
2:15 PM 71.6 °F - 52.9 °F 52% 30.20 in 10.0 mi Calm Calm - N/A   Clear
2:35 PM 70.7 °F - 52.7 °F 53% 30.19 in 10.0 mi SSE 3.5 mph - N/A   Scattered Clouds
2:55 PM 70.9 °F - 52.3 °F 52% 30.19 in 10.0 mi SSW 4.6 mph - N/A   Scattered Clouds
3:15 PM 70.2 °F - 53.4 °F 55% 30.20 in 10.0 mi Calm Calm - N/A   Mostly Cloudy
3:35 PM 70.5 °F - 53.4 °F 55% 30.20 in 10.0 mi SE 5.8 mph - N/A   Mostly Cloudy
3:55 PM 69.4 °F - 53.6 °F 57% 30.19 in 10.0 mi SE 5.8 mph - N/A   Scattered Clouds
4:15 PM 68.9 °F - 53.6 °F 58% 30.19 in 10.0 mi SE 3.5 mph - N/A   Scattered Clouds
4:35 PM 68.0 °F - 54.5 °F 62% 30.20 in 10.0 mi SSE 3.5 mph - N/A   Mostly Cloudy
4:55 PM 67.1 °F - 55.0 °F 65% 30.20 in 10.0 mi SE 3.5 mph - N/A   Overcast
5:15 PM 66.2 °F - 55.0 °F 67% 30.19 in 10.0 mi SSE 3.5 mph - N/A   Overcast
5:35 PM 64.8 °F - 55.4 °F 72% 30.19 in 10.0 mi Calm Calm - N/A   Mostly Cloudy
5:55 PM 64.8 °F - 55.6 °F 72% 30.19 in 10.0 mi SE 3.5 mph - N/A   Mostly Cloudy
6:15 PM 64.6 °F - 55.6 °F 73% 30.20 in 10.0 mi SE 3.5 mph - N/A   Overcast
6:35 PM 64.4 °F - 55.4 °F 73% 30.20 in 10.0 mi ESE 3.5 mph - N/A   Mostly Cloudy
6:55 PM 63.1 °F - 55.4 °F 76% 30.20 in 10.0 mi SE 4.6 mph - N/A   Scattered Clouds
7:15 PM 62.6 °F - 54.7 °F 75% 30.20 in 10.0 mi SSE 4.6 mph - N/A   Clear
7:35 PM 61.7 °F - 54.5 °F 77% 30.21 in 10.0 mi SE 3.5 mph - N/A   Scattered Clouds
7:55 PM 61.5 °F - 53.8 °F 76% 30.21 in 10.0 mi SSE 3.5 mph - N/A   Scattered Clouds
8:15 PM 60.3 °F - 53.6 °F 79% 30.21 in 10.0 mi SSE 3.5 mph - N/A   Scattered Clouds
8:35 PM 58.1 °F - 53.6 °F 85% 30.22 in 10.0 mi South 3.5 mph - N/A   Scattered Clouds
9:15 PM 59.0 °F - 53.1 °F 81% 30.21 in 10.0 mi SSE 6.9 mph - N/A   Scattered Clouds
9:35 PM 59.0 °F - 52.9 °F 80% 30.21 in 10.0 mi SSE 6.9 mph - N/A   Clear
9:55 PM 59.4 °F - 52.7 °F 79% 30.21 in 10.0 mi South 5.8 mph - N/A   Clear
10:15 PM 57.7 °F - 52.5 °F 83% 30.21 in 10.0 mi SSE 5.8 mph - N/A   Clear
10:35 PM 56.7 °F - 52.2 °F 85% 30.21 in 10.0 mi South 5.8 mph - N/A   Clear
11:15 PM 55.8 °F - 52.2 °F 88% 30.21 in 10.0 mi South 5.8 mph - N/A   Clear
11:35 PM 55.6 °F - 52.7 °F 90% 30.22 in 10.0 mi Calm Calm - N/A   Clear
11:55 PM 54.0 °F - 52.7 °F 95% 30.21 in 10.0 mi South 3.5 mph - N/A   Clear